Location: Newark
(54.2500°N, 9.1833°E)
Time: 05:02:59
(UTC+00:00)

Transit 4A - Pass Details

Date: 20 December 2019
Orbit: 871 x 973 km, 66.8° (Epoch: 20 January)

Event Time Altitude Azimuth Distance (km) Brightness Sun altitude
Rises 16:26:34 0° 254° (WSW) 3,570 13.0 -11.4°
Reaches altitude 10° 16:29:18 10° 262° (W) 2,613 11.6 -11.7°
Maximum altitude 16:34:56 38° 330° (NNW) 1,340 8.8 -12.5°
Enters shadow 16:39:52 13° 36° (NE) 2,370 9.5 -13.1°
